カタログに戻る

NOAA 4

運用中気象SSO
NORAD 7529·PAYLOAD·🇺🇸 United States

打ち上げ Nov 15, 1974 から Vandenberg Space Force Base

Loading…

次のパス (今後24時間)

TLE

最新Source: Space-Track

元期: Sep 14, 2026, 00:35 UTC

1 07529U 74089A   26257.02480678 -.00000035  00000-0  69576-4 0  9994
2 07529 102.0029 270.7363 0009267  29.7732 354.4000 12.53206285370652

AllMySatでNOAA 4をリアルタイム追跡

Download on the App Store